Regional Weather Roundup
Issued by NWS

Home | Current Version | Previous Version | Text Only | Print | Product List | Glossary On
Versions: 1 2 3 4 5 6 7 8 9 10 11 12 13 14 15 16 17 18 19 20 21 22 23 24 25 26 27 28 29 30 31 32 33 34 35 36 37 38 39 40 41 42 43 44 45 46 47 48 49 50
191
ASUS43 KMKX 210421
RWRWI

WISCONSIN REGIONAL WEATHER ROUNDUP
NATIONAL WEATHER SERVICE MILWAUKEE/SULLIVAN WI
1100 PM CDT FRI OCT 20 2017

NOTE: "FAIR" INDICATES FEW OR NO CLOUDS BELOW 12,000 FEET WITH NO
SIGNIFICANT WEATHER AND/OR OBSTRUCTIONS TO VISIBILITY.

WIZ001-002-006>008-014>016-023>028-210500-
NORTHWEST WISCONSIN

CITY           SKY/WX    TMP DP  RH WIND       PRES   REMARKS
SUPERIOR ARPT  MOCLDY    66  45  45 S13G21    29.72S
ASHLAND        MOCLDY    68  44  42 S14G26    29.76F
HAYWARD        PTCLDY    65  45  48 S12       29.79F
SIREN          PTCLDY    67  44  43 S12G24    29.75S
CUMBERLAND     PTCLDY    61  43  51 S10       29.79F
RICE LAKE      PTCLDY    62  45  54 SE7       29.81S
CHETEK         PTCLDY    60  47  61 SE8       29.80F
LADYSMITH      MOCLDY    62  46  56 SE7       29.85S
EAU CLAIRE     CLOUDY    65  43  44 S14       29.81S
MENOMONIE      MOCLDY    67  44  43 S16G26    29.80S
NEW RICHMOND   PTCLDY    64  45  48 S15G21    29.77S
OSCEOLA        PTCLDY    66  47  51 S12G21    29.77S
$$

WIZ003>005-009-010-017-018-210500-
NORTH CENTRAL WISCONSIN

CITY           SKY/WX    TMP DP  RH WIND       PRES   REMARKS
MANITOWISH WTR MOCLDY    60  43  53 S6        29.86S
ARBOR VITAE    PTCLDY    63  45  50 S15G23    29.88S
WOODRUFF       PTCLDY    63  45  50 S15G23    29.88S
RHINELANDER    PTCLDY    63  45  51 S15G22    29.90S
EAGLE RIVER    PTCLDY    61  41  47 S7        29.89S
LAND O LAKES   PTCLDY    62  42  47 S7        29.90S
PHILLIPS       PTCLDY    62  46  55 S13       29.85S
TOMAHAWK       PTCLDY    59  44  56 S3        29.90R
MEDFORD        CLOUDY    59  45  59 S10G16    29.88R
MERRILL        PTCLDY    64  46  52 S9G16     29.91R
$$

WIZ029-030-035-036-043>047-210500-
CENTRAL WISCONSIN

CITY           SKY/WX    TMP DP  RH WIND       PRES   REMARKS
WAUSAU         MOCLDY    63  45  51 S13G24    29.89S
MOSINEE        MOCLDY    61  45  55 S12       29.92S
MARSHFIELD     PTCLDY    60  44  55 S10       29.89R
STEVENS POINT  CLOUDY    62  46  54 S12       29.93R
WAUPACA        MOCLDY    62  49  60 SE3       29.94S
WAUTOMA        MOCLDY    63  49  60 S8        29.94S
WISC RAPIDS    PTCLDY    65  47  52 S10       29.92R
CAMP DOUGLAS   NOT AVBL
$$

WIZ011>013-019>022-031-037>040-048>050-210500-
NORTHEAST WISCONSIN

CITY           SKY/WX    TMP DP  RH WIND       PRES   REMARKS
ANTIGO         CLOUDY    56  44  66 S9        29.94R
SHAWANO        CLOUDY    64  48  56 S5        29.94R
OCONTO         PTCLDY    60  51  70 S6        29.94S
STURGEON BAY   CLOUDY    60  51  72 S12       29.97R
GREEN BAY      PTCLDY    61  51  70 S8        29.96S
MANITOWOC      CLOUDY    56  51  84 S6        29.99S
APPLETON       PTCLDY    63  46  55 S9        29.95R
CLINTONVILLE   CLOUDY    63  46  55 S7        29.94S
OSHKOSH        CLOUDY    65  50  58 S17       29.95S
$$

WIZ032>034-041-042-053>061-210500-
SOUTHWEST WISCONSIN

CITY           SKY/WX    TMP DP  RH WIND       PRES   REMARKS
LA CROSSE      CLOUDY    68  46  45 S17       29.86S
SPARTA         MOCLDY    68  44  41 S14       29.90R
VIROQUA        CLOUDY    65  46  49 S10G22    29.92R
BOSCOBEL       CLOUDY    69  44  40 S12G21    29.93R
PRAIRIE DU CHI CLOUDY    67  43  41 SE9       29.91R
PLATTEVILLE    MOCLDY    65  47  50 S14       29.96S
$$

WIZ056-057-062-063-064-067-068-210500-
SOUTH CENTRAL WISCONSIN

CITY           SKY/WX    TMP DP  RH WIND       PRES   REMARKS
REEDSBURG      CLOUDY    67  45  44 S15G23    29.93S
BARABOO/DELLS  CLOUDY    67  41  39 S16G23    29.94R
LONE ROCK      CLOUDY    68  46  45 S9G20     29.94R
MINERAL POINT  PTCLDY    66  45  45 S13G20    29.96S
MADISON        CLOUDY    67  46  47 S17       29.97S
MIDDLETON      CLOUDY    65  46  49 S13G20    29.97S
WATERTOWN      CLOUDY    65  47  52 S10G17    29.99S
MONROE         CLOUDY    63  43  48 S15       29.98F
JANESVILLE     CLOUDY    68  43  40 S15       30.00S
$$

WIZ051-052-058>065-066-070>072-210500-
SOUTHEAST WISCONSIN

CITY           SKY/WX    TMP DP  RH WIND       PRES   REMARKS
MILWAUKEE      CLOUDY    68  48  48 S13       30.02R
WAUKESHA       CLOUDY    63  45  51 S8        30.03R
MILWAUKEE/TIMM CLOUDY    64  43  45 S12       30.02S
RACINE         MOCLDY    64  50  60 S8        30.04S
BURLINGTON     MOCLDY    64  49  58 S8        30.02S
KENOSHA        MOCLDY    65  47  52 S8        30.04R
FOND DU LAC    CLOUDY    67  46  47 S12G20    29.97S
SHEBOYGAN      CLOUDY    57  52  83 S10       29.99S
WEST BEND      CLOUDY    64  45  48 S13G18    30.00S
JUNEAU         CLOUDY    63  48  58 S13       30.00S
$$

LSZ147-162-210500-
LAKE SUPERIOR

STATION/POSITION TIME  TEMP    WIND        PRES    WAVE
                       AIR SEA DIR/SP/G            HT/PER
                 (UTC) (F)     (DEG/KT/KT) (MB)    (FT/S)
W MID LAKE BUOY  0350   63 52              1008.4R   1
DEVILS ISLAND    0400   67     190/ 11/ 15 1007.7R
SAXON HARBOR     0340   70     200/ 11/ 18 1007.8S
$$

LMZ867-665-643>646-210500-
LAKE MICHIGAN

STATION/POSITION TIME  TEMP    WIND        PRES    WAVE
                       AIR SEA DIR/SP/G            HT/PER
                 (UTC) (F)     (DEG/KT/KT) (MB)    (FT/S)
S GREEN BAY BUOY 0400   63 58  180/ 14/ 16 1014.0
N MID LAKE BUOY  0350   63 58  180/ 17/ 19 1015.2F   5/ 6
NORTHPORT PIER   0340   61     160/  7/ 14 1014.2S
KEWAUNEE LAKESHO 0354   56     180/  9/ 10 1014.4R
SHEBOYGAN LAKESH 0400   58     180/ 19/ 20 1015.4R
PORT WASHINGTON  0340   56     200/  3/  5 1016.9S
ATWATER BUOY     0309   57 53  170/ 10/ 12 1016.3R
MILWAUKEE LAKESH 0400   68     200/ 14/ 16   N/A
S MID LAKE BUOY  0350   64 61  170/ 16/ 17 1017.6R   2/ 3
KENOSHA   LAKESH 0400   59     170/ 10/ 11 1016.9
$$

TC  - TEMPERATURE IN CELSIUS
VSB - VISIBILITY IN STATUTE MILES
WCI - WIND CHILL INDEX
HX  - HEAT INDEX





USA.gov is the U.S. government's official web portal to all federal, state and local government web resources and services.